Weather in Treskino

Russia / Penza Oblast     52°41′19″N   44°39′01″E
temp.,
°C
wind,
m/s
gust,
m/s
humid.,
%
clouds,
%
prec.,
mm/h
press.,
hPa
HPBL,
m
28 november, sun
sun2800:000sse91893100 0.3 1014617
03:00+1s81797100 1.1 1013611
06:00+1s71498100 1.0 1012492
09:00+1s61399100 2.1 1012401
12:00+1sse510100100 1.1 1012294
15:00+1s49100100 1.5 1013220
18:00+1s37100100 0.1 1014143
21:00+1sse36100100 0.1 1015108
29 november, mon
mon2900:00+2se36100100 0.1 1015103
03:00+2sse49100100 0.1 1015162
06:00+2se49100100 0.0 1014171
09:00+2se61399100 0.1 1013300
12:00+3se81698100 3.3 1010348
15:00+4sse101997100 6.5 1007663
18:00+5s81796100 1.8 1006510
21:00+5sse81696100 1.8 1004387
30 november, tue
tue3000:00+6sse112294100 1.9 1000859
03:00+8s132491100 6.9 995932
06:00+8s132288100 1.6 9911012
09:00+9s122291100 2.2 9891120
12:00+10sw13207186 3.5 9891443
15:00+5sw1221695 3.6 9911275
18:00+4sw13216997 0.0 993995
21:00+2sw917745 0.0 995841
1 december, wed
wed100:00+1sw7137955 0.0 995611
03:000ssw4984100 0.0 995424
06:000ssw4789100 0.1 994486
09:00−1w2494100 0.6 993299
12:00−1wnw5895100 2.6 992553
15:00−1w61082100 2.8 994691
18:00−2w61074100 0.1 9961160
21:00−3wsw6117863 0.1 997718
2 december, thu
thu200:00−3sw6128441 0.0 999669
03:00−3sw61290100 0.0 1000743
06:00−2wsw71187100 0.1 1002972
09:00−3wsw7117926 0.3 1005878
12:00−2wsw6107811 0.0 1006743
15:00−2sw51176100 0.0 1007688
18:00−2ssw61394100 0.1 1007612
21:000sw81697100 0.7 1006726